FW4441 Weather Reports


time (UTC)temp
F
wind
direction
speed
knots
gust
knots
rain 1hr
in
rain 24hr
in
rain mn
in
humidity
%
barometer
mb
20260508231532 70 250 11.3 20.9 0.00 0.00 0.00 40 1016.6
20260508230029 69 254 10.4 19.1 0.00 0.00 0.00 42 1016.7
20260508224532 69 255 11.3 20.0 0.00 0.00 0.00 42 1016.8
20260508223107 68 252 13.0 21.7 0.00 0.00 0.00 43 1016.7
20260508221605 68 252 13.0 24.3 0.00 0.00 0.00 44 1016.7
20260508214530 68 256 10.4 18.2 0.00 0.00 0.00 45 1016.8
20260508213032 67 254 11.3 21.7 0.00 0.00 0.00 46 1016.9
20260508211529 66 256 13.0 24.3 0.00 0.00 0.00 47 1016.8
20260508210031 67 253 13.0 27.8 0.00 0.00 0.00 47 1016.8
20260508204530 67 253 12.2 28.7 0.00 0.00 0.00 47 1016.9
20260508201530 66 265 12.2 22.6 0.00 0.00 0.00 48 1016.7
20260508200054 67 268 10.4 20.9 0.00 0.00 0.00 49 1016.8
20260508194532 67 247 8.7 18.2 0.00 0.00 0.00 49 1016.8
20260508193031 65 251 7.8 19.1 0.00 0.00 0.00 51 1017.0
20260508191530 64 266 8.7 19.1 0.00 0.00 0.00 53 1017.0
20260508190030 60 253 9.6 18.2 0.00 0.00 0.00 57 1017.1
20260508184531 58 256 9.6 19.1 0.00 0.00 0.00 59 1017.2
20260508183030 55 296 6.1 12.2 0.00 0.00 0.00 62 1017.4
20260508181531 54 263 5.2 11.3 0.00 0.00 0.00 64 1017.4
20260508180032 53 285 5.2 11.3 0.00 0.00 0.00 64 1017.1
20260508174529 53 276 5.2 13.9 0.00 0.00 0.00 64 1017.2
20260508173029 53 277 5.2 12.2 0.00 0.00 0.00 64 1016.9
20260508171535 54 280 4.3 10.4 0.00 0.00 0.00 64 1016.7
20260508170029 54 280 6.1 16.5 0.00 0.00 0.00 64 1016.5
20260508164532 54 272 7.0 14.8 0.00 0.00 0.00 65 1016.5
20260508163029 55 270 8.7 16.5 0.00 0.00 0.00 64 1016.7
20260508161530 56 277 7.8 15.6 0.00 0.00 0.00 64 1016.7
20260508160030 56 281 8.7 16.5 0.00 0.00 0.00 64 1016.6
20260508154532 55 279 9.6 19.1 0.00 0.00 0.00 65 1016.6
20260508153030 55 271 8.7 18.2 0.00 0.00 0.00 66 1016.5
20260508151605 55 264 7.8 15.6 0.00 0.00 0.00 66 1016.3
20260508150031 55 259 7.0 15.6 0.00 0.00 0.00 66 1016.1
20260508144530 53 319 3.5 7.8 0.00 0.00 0.00 65 1015.9
20260508143031 53 348 5.2 10.4 0.00 0.00 0.00 65 1015.6
20260508141604 53 359 7.0 12.2 0.00 0.00 0.00 65 1015.4
20260508140032 52 360 6.1 12.2 0.00 0.00 0.00 67 1015.2
20260508133156 52 10 5.2 7.8 0.00 0.00 0.00 69 1014.9
20260508131530 52 332 4.3 8.7 0.00 0.00 0.00 69 1014.8
20260508130031 52 329 5.2 8.7 0.00 0.00 0.00 68 1014.7
20260508124533 51 336 4.3 8.7 0.00 0.00 0.00 67 1014.7
20260508121609 51 337 3.5 7.0 0.00 0.00 0.00 64 1014.5
20260508120032 51 345 3.5 7.8 0.00 0.00 0.00 64 1014.5
20260508111647 51 19 3.5 6.1 0.00 0.00 0.00 62 1014.1
20260508110149 51 32 2.6 4.3 0.00 0.00 0.00 61 1014.1
20260508101547 50 38 2.6 5.2 0.00 0.00 0.00 61 1014.1
20260508100029 50 38 3.5 6.1 0.00 0.00 0.00 60 1014.1
20260508094532 50 24 3.5 5.2 0.00 0.00 0.00 59 1014.0
20260508093029 51 22 3.5 5.2 0.00 0.00 0.00 57 1013.9
20260508090032 53 37 2.6 5.2 0.00 0.00 0.00 54 1013.9
20260508084532 53 39 1.7 4.3 0.00 0.00 0.00 54 1013.9
20260508083030 53 11 1.7 3.5 0.00 0.00 0.00 53 1013.9
20260508081530 54 65 1.7 3.5 0.00 0.00 0.00 53 1013.9
20260508080030 54 35 0.0 2.6 0.00 0.00 0.00 53 1013.9
20260508074533 54 194 0.9 3.5 0.00 0.00 0.00 53 1013.9
20260508071531 54 105 0.0 2.6 0.00 0.00 0.00 53 1013.9
20260508070043 54 245 0.0 3.5 0.00 0.00 0.00 53 1013.8
20260508064532 54 172 0.9 4.3 0.00 0.00 0.00 51 1013.8
20260508061530 53 295 0.9 5.2 0.00 0.00 0.00 48 1013.8
20260508060029 54 312 0.9 3.5 0.00 0.00 0.00 46 1013.9
20260508054531 53 313 0.0 3.5 0.00 0.00 0.00 46 1013.8
20260508051606 55 282 2.6 4.3 0.00 0.00 0.00 43 1013.9
20260508044607 56 244 1.7 5.2 0.00 0.00 0.00 43 1013.7
20260508043028 57 217 1.7 4.3 0.00 0.00 0.00 44 1013.7
20260508041530 57 235 2.6 6.1 0.00 0.00 0.00 43 1013.6
20260508034532 59 238 4.3 11.3 0.00 0.00 0.00 37 1013.3
20260508031533 61 229 4.3 7.8 0.00 0.00 0.00 32 1013.0
20260508030030 62 219 4.3 8.7 0.00 0.00 0.00 30 1013.0
20260508023031 64 255 7.0 13.0 0.00 0.00 0.00 28 1012.8
20260508021608 65 261 7.0 13.0 0.00 0.00 0.00 27 1012.7
20260508020028 66 259 7.8 18.2 0.00 0.00 0.00 26 1012.6
20260508013030 68 255 9.6 18.2 0.00 0.00 0.00 23 1012.5
20260508011531 70 258 9.6 19.1 0.00 0.00 0.00 23 1012.6
20260508010107 70 265 9.6 20.0 0.00 0.00 0.00 22 1012.7
20260508004603 71 272 9.6 20.0 0.00 0.00 0.00 21 1012.7
20260508001532 72 271 9.6 19.1 0.00 0.00 0.00 21 1012.7
20260508000037 72 268 8.7 18.2 0.00 0.00 0.00 22 1012.7
20260507234533 72 264 10.4 22.6 0.00 0.00 0.00 23 1012.7